| time (UTC) | temp F | wind direction | speed knots | gust knots | rain 1hr in | rain 24hr in | rain mn in | humidity % | barometer mb |
| 20260510190503 | 75 | 348 | 0.0 | 3.5 | 0.00 | 0.00 | 0.00 | 43 | 1016.6 |
| 20260510190003 | 75 | 355 | 0.0 | 3.5 | 0.00 | 0.00 | 0.00 | 45 | 1016.6 |
| 20260510185524 | 75 | 11 | 0.0 | 2.6 | 0.00 | 0.00 | 0.00 | 44 | 1016.6 |
| 20260510185024 | 75 | 5 | 0.0 | 2.6 | 0.00 | 0.00 | 0.00 | 44 | 1016.6 |
| 20260510184503 | 75 | 80 | 0.0 | 2.6 | 0.00 | 0.00 | 0.00 | 42 | 1016.6 |
| 20260510184003 | 75 | 340 | 0.0 | 0.0 | 0.00 | 0.00 | 0.00 | 45 | 1016.7 |
| 20260510183503 | 74 | 30 | 0.0 | 4.3 | 0.00 | 0.00 | 0.00 | 46 | 1016.8 |
| 20260510183003 | 74 | 43 | 0.0 | 4.3 | 0.00 | 0.00 | 0.00 | 44 | 1016.7 |
| 20260510182503 | 74 | 49 | 0.0 | 2.6 | 0.00 | 0.00 | 0.00 | 47 | 1016.8 |
| 20260510182003 | 74 | 52 | 0.0 | 2.6 | 0.00 | 0.00 | 0.00 | 44 | 1016.8 |
| 20260510181503 | 74 | 159 | 0.0 | 3.5 | 0.00 | 0.00 | 0.00 | 49 | 1016.8 |
| 20260510181024 | 74 | 75 | 0.0 | 3.5 | 0.00 | 0.00 | 0.00 | 48 | 1016.9 |
| 20260510180524 | 73 | 309 | 0.0 | 0.0 | 0.00 | 0.00 | 0.00 | 51 | 1017.0 |
| 20260510180003 | 72 | 51 | 0.0 | 0.0 | 0.00 | 0.00 | 0.00 | 50 | 1017.1 |
| 20260510175503 | 73 | 346 | 0.0 | 0.0 | 0.00 | 0.00 | 0.00 | 48 | 1017.1 |
| 20260510175003 | 73 | 340 | 0.0 | 2.6 | 0.00 | 0.00 | 0.00 | 47 | 1017.2 |
| 20260510174503 | 72 | 330 | 0.0 | 2.6 | 0.00 | 0.00 | 0.00 | 48 | 1017.2 |
| 20260510174002 | 71 | 5 | 0.0 | 0.0 | 0.00 | 0.00 | 0.00 | 53 | 1017.3 |
| 20260510173503 | 71 | 333 | 0.0 | 0.0 | 0.00 | 0.00 | 0.00 | 55 | 1017.3 |
| 20260510173002 | 71 | 332 | 0.0 | 0.0 | 0.00 | 0.00 | 0.00 | 54 | 1017.3 |
| 20260510172503 | 71 | 17 | 0.0 | 0.0 | 0.00 | 0.00 | 0.00 | 51 | 1017.4 |
| 20260510172004 | 71 | 17 | 0.0 | 0.0 | 0.00 | 0.00 | 0.00 | 52 | 1017.3 |
| 20260510171502 | 71 | 53 | 0.0 | 0.0 | 0.00 | 0.00 | 0.00 | 53 | 1017.5 |
| 20260510171003 | 71 | 335 | 0.0 | 0.9 | 0.00 | 0.00 | 0.00 | 57 | 1017.5 |
| 20260510170524 | 71 | 47 | 0.0 | 0.9 | 0.00 | 0.00 | 0.00 | 51 | 1017.5 |
| 20260510170004 | 71 | 60 | 0.0 | 0.9 | 0.00 | 0.00 | 0.00 | 57 | 1017.5 |
| 20260510165502 | 71 | 24 | 0.0 | 5.2 | 0.00 | 0.00 | 0.00 | 50 | 1017.5 |
| 20260510165024 | 72 | 25 | 0.0 | 5.2 | 0.00 | 0.00 | 0.00 | 52 | 1017.5 |
| 20260510164503 | 72 | 63 | 0.0 | 2.6 | 0.00 | 0.00 | 0.00 | 52 | 1017.4 |
| 20260510164003 | 72 | 179 | 0.0 | 0.9 | 0.00 | 0.00 | 0.00 | 53 | 1017.5 |
| 20260510163503 | 73 | 108 | 0.0 | 0.0 | 0.00 | 0.00 | 0.00 | 54 | 1017.5 |
| 20260510163003 | 72 | 355 | 0.0 | 0.0 | 0.00 | 0.00 | 0.00 | 56 | 1017.6 |
| 20260510162503 | 71 | 347 | 0.0 | 4.3 | 0.00 | 0.00 | 0.00 | 56 | 1017.7 |
| 20260510162002 | 71 | 147 | 0.0 | 4.3 | 0.00 | 0.00 | 0.00 | 54 | 1017.6 |
| 20260510161503 | 71 | 182 | 0.0 | 0.9 | 0.00 | 0.00 | 0.00 | 51 | 1017.6 |
| 20260510161003 | 71 | 9 | 0.0 | 0.0 | 0.00 | 0.00 | 0.00 | 54 | 1017.6 |
| 20260510160503 | 70 | 54 | 0.0 | 4.3 | 0.00 | 0.00 | 0.00 | 53 | 1017.6 |
| 20260510160024 | 71 | 329 | 0.0 | 4.3 | 0.00 | 0.00 | 0.00 | 56 | 1017.8 |
| 20260510155503 | 71 | 272 | 0.0 | 0.0 | 0.00 | 0.00 | 0.00 | 51 | 1017.7 |
| 20260510155003 | 71 | 336 | 0.0 | 0.9 | 0.00 | 0.00 | 0.00 | 53 | 1017.8 |
| 20260510154502 | 71 | 5 | 0.0 | 0.9 | 0.00 | 0.00 | 0.00 | 55 | 1017.8 |
| 20260510154004 | 70 | 5 | 0.0 | 0.9 | 0.00 | 0.00 | 0.00 | 54 | 1017.9 |
| 20260510153524 | 71 | 149 | 0.0 | 0.0 | 0.00 | 0.00 | 0.00 | 53 | 1017.9 |
| 20260510153003 | 71 | 52 | 0.0 | 0.0 | 0.00 | 0.00 | 0.00 | 55 | 1017.8 |
| 20260510152503 | 70 | 351 | 0.0 | 0.9 | 0.00 | 0.00 | 0.00 | 57 | 1017.8 |
| 20260510152002 | 70 | 40 | 0.0 | 1.7 | 0.00 | 0.00 | 0.00 | 54 | 1017.8 |
| 20260510151503 | 70 | 5 | 0.0 | 1.7 | 0.00 | 0.00 | 0.00 | 54 | 1017.9 |
| 20260510151003 | 70 | 55 | 0.0 | 1.7 | 0.00 | 0.00 | 0.00 | 55 | 1017.8 |
| 20260510150524 | 70 | 360 | 0.0 | 3.5 | 0.00 | 0.00 | 0.00 | 56 | 1017.8 |
| 20260510150002 | 70 | 36 | 0.0 | 3.5 | 0.00 | 0.00 | 0.00 | 55 | 1017.9 |
| 20260510145503 | 69 | 355 | 0.0 | 2.6 | 0.00 | 0.00 | 0.00 | 55 | 1017.9 |
| 20260510145006 | 69 | 305 | 0.0 | 2.6 | 0.00 | 0.00 | 0.00 | 55 | 1017.8 |
| 20260510144506 | 69 | 71 | 0.0 | 0.0 | 0.00 | 0.00 | 0.00 | 53 | 1017.9 |
| 20260510144003 | 69 | 46 | 0.0 | 1.7 | 0.00 | 0.00 | 0.00 | 56 | 1017.8 |
| 20260510143503 | 69 | 300 | 0.0 | 1.7 | 0.00 | 0.00 | 0.00 | 57 | 1017.8 |
| 20260510143004 | 68 | 32 | 0.0 | 2.6 | 0.00 | 0.00 | 0.00 | 57 | 1017.9 |
| 20260510142503 | 68 | 359 | 0.0 | 2.6 | 0.00 | 0.00 | 0.00 | 58 | 1017.8 |
| 20260510142002 | 68 | 144 | 0.0 | 1.7 | 0.00 | 0.00 | 0.00 | 56 | 1017.9 |
| 20260510141524 | 68 | 51 | 0.0 | 1.7 | 0.00 | 0.00 | 0.00 | 61 | 1018.0 |
| 20260510141003 | 67 | 5 | 0.0 | 0.9 | 0.00 | 0.00 | 0.00 | 57 | 1017.9 |
| 20260510140503 | 67 | 348 | 0.0 | 0.9 | 0.00 | 0.00 | 0.00 | 58 | 1018.0 |
| 20260510140003 | 67 | 5 | 0.0 | 0.0 | 0.00 | 0.00 | 0.00 | 58 | 1018.0 |
| 20260510135503 | 67 | 51 | 0.0 | 0.0 | 0.00 | 0.00 | 0.00 | 58 | 1017.9 |
| 20260510135003 | 66 | 313 | 0.0 | 0.0 | 0.00 | 0.00 | 0.00 | 61 | 1018.0 |
| 20260510134524 | 66 | 223 | 0.0 | 0.9 | 0.00 | 0.00 | 0.00 | 60 | 1018.1 |
| 20260510134003 | 66 | 43 | 0.0 | 0.9 | 0.00 | 0.00 | 0.00 | 59 | 1018.1 |
| 20260510133502 | 66 | 173 | 0.0 | 0.0 | 0.00 | 0.00 | 0.00 | 59 | 1018.0 |
| 20260510133003 | 65 | 330 | 0.0 | 0.0 | 0.00 | 0.00 | 0.00 | 59 | 1017.9 |
| 20260510132503 | 65 | 307 | 0.0 | 0.0 | 0.00 | 0.00 | 0.00 | 62 | 1018.0 |
| 20260510131502 | 64 | 49 | 0.0 | 2.6 | 0.00 | 0.00 | 0.00 | 63 | 1018.0 |
| 20260510131003 | 64 | 25 | 0.0 | 2.6 | 0.00 | 0.00 | 0.00 | 64 | 1017.9 |
| 20260510130503 | 63 | 34 | 0.0 | 0.0 | 0.00 | 0.00 | 0.00 | 65 | 1018.0 |
| 20260510130003 | 63 | 12 | 0.0 | 0.0 | 0.00 | 0.00 | 0.00 | 73 | 1018.0 |
| 20260510125503 | 62 | 329 | 0.0 | 0.0 | 0.00 | 0.00 | 0.00 | 72 | 1017.9 |
| 20260510125003 | 61 | 57 | 0.0 | 0.9 | 0.00 | 0.00 | 0.00 | 74 | 1017.8 |
| 20260510124503 | 61 | 64 | 0.0 | 0.9 | 0.00 | 0.00 | 0.00 | 74 | 1017.9 |
| 20260510124003 | 60 | 50 | 0.0 | 0.0 | 0.00 | 0.00 | 0.00 | 74 | 1017.8 |
| 20260510123545 | 59 | 42 | 0.0 | 0.0 | 0.00 | 0.00 | 0.00 | 76 | 1017.9 |
| 20260510123024 | 58 | 81 | 0.0 | 0.0 | 0.00 | 0.00 | 0.00 | 77 | 1017.6 |
| 20260510122524 | 58 | 105 | 0.0 | 0.0 | 0.00 | 0.00 | 0.00 | 77 | 1017.6 |
| 20260510122003 | 57 | 105 | 0.0 | 0.0 | 0.00 | 0.00 | 0.00 | 76 | 1017.5 |
| 20260510121503 | 58 | 139 | 0.0 | 0.0 | 0.00 | 0.00 | 0.00 | 75 | 1017.4 |
| 20260510121003 | 59 | 144 | 0.0 | 0.9 | 0.00 | 0.00 | 0.00 | 74 | 1017.4 |
| 20260510120502 | 59 | 144 | 0.0 | 0.9 | 0.00 | 0.00 | 0.00 | 74 | 1017.4 |
| 20260510120003 | 59 | 150 | 0.0 | 0.0 | 0.00 | 0.00 | 0.00 | 75 | 1017.4 |
| 20260510115503 | 58 | 150 | 0.0 | 0.0 | 0.00 | 0.00 | 0.00 | 74 | 1017.4 |
| 20260510115003 | 58 | 148 | 0.0 | 0.0 | 0.00 | 0.00 | 0.00 | 75 | 1017.4 |
| 20260510114503 | 57 | 150 | 0.0 | 0.0 | 0.00 | 0.00 | 0.00 | 77 | 1017.4 |
| 20260510114003 | 56 | 182 | 0.0 | 0.0 | 0.00 | 0.00 | 0.00 | 77 | 1017.3 |
| 20260510113504 | 55 | 182 | 0.0 | 0.0 | 0.00 | 0.00 | 0.00 | 78 | 1017.2 |
| 20260510113024 | 54 | 182 | 0.0 | 0.0 | 0.00 | 0.00 | 0.00 | 78 | 1017.1 |
| 20260510112503 | 54 | 182 | 0.0 | 0.0 | 0.00 | 0.00 | 0.00 | 78 | 1017.1 |
| 20260510112003 | 53 | 182 | 0.0 | 0.0 | 0.00 | 0.00 | 0.00 | 79 | 1016.9 |
| 20260510111502 | 53 | 182 | 0.0 | 0.0 | 0.00 | 0.00 | 0.00 | 78 | 1016.9 |
| 20260510111024 | 53 | 182 | 0.0 | 0.0 | 0.00 | 0.00 | 0.00 | 79 | 1016.9 |
| 20260510110503 | 52 | 182 | 0.0 | 0.0 | 0.00 | 0.00 | 0.00 | 79 | 1016.8 |
| 20260510110003 | 52 | 182 | 0.0 | 0.0 | 0.00 | 0.00 | 0.00 | 79 | 1016.7 |
| 20260510105503 | 52 | 182 | 0.0 | 0.0 | 0.00 | 0.00 | 0.00 | 79 | 1016.5 |
| 20260510105003 | 51 | 182 | 0.0 | 0.0 | 0.00 | 0.00 | 0.00 | 79 | 1016.4 |
| 20260510104503 | 51 | 182 | 0.0 | 0.0 | 0.00 | 0.00 | 0.00 | 79 | 1016.4 |
| 20260510104003 | 51 | 182 | 0.0 | 0.0 | 0.00 | 0.00 | 0.00 | 79 | 1016.3 |
| 20260510103504 | 51 | 182 | 0.0 | 0.0 | 0.00 | 0.00 | 0.00 | 79 | 1016.3 |
| 20260510103003 | 51 | 182 | 0.0 | 0.0 | 0.00 | 0.00 | 0.00 | 79 | 1016.3 |
| 20260510102503 | 51 | 182 | 0.0 | 0.0 | 0.00 | 0.00 | 0.00 | 79 | 1016.3 |
| 20260510102024 | 51 | 182 | 0.0 | 0.0 | 0.00 | 0.00 | 0.00 | 79 | 1016.3 |
| 20260510101503 | 51 | 182 | 0.0 | 0.0 | 0.00 | 0.00 | 0.00 | 78 | 1016.2 |
| 20260510101003 | 52 | 182 | 0.0 | 0.0 | 0.00 | 0.00 | 0.00 | 78 | 1016.1 |
| 20260510100503 | 52 | 182 | 0.0 | 0.0 | 0.00 | 0.00 | 0.00 | 78 | 1016.1 |
| 20260510100003 | 52 | 182 | 0.0 | 0.0 | 0.00 | 0.00 | 0.00 | 78 | 1016.0 |
| 20260510095503 | 52 | 182 | 0.0 | 0.0 | 0.00 | 0.00 | 0.00 | 79 | 1015.9 |
| 20260510095003 | 52 | 182 | 0.0 | 0.0 | 0.00 | 0.00 | 0.00 | 79 | 1015.9 |
| 20260510094504 | 52 | 182 | 0.0 | 0.0 | 0.00 | 0.00 | 0.00 | 79 | 1015.8 |
| 20260510094003 | 52 | 182 | 0.0 | 0.0 | 0.00 | 0.00 | 0.00 | 79 | 1015.9 |
| 20260510093504 | 52 | 182 | 0.0 | 0.0 | 0.00 | 0.00 | 0.00 | 79 | 1015.9 |
| 20260510093003 | 52 | 182 | 0.0 | 0.0 | 0.00 | 0.00 | 0.00 | 79 | 1015.9 |
| 20260510092504 | 52 | 182 | 0.0 | 0.0 | 0.00 | 0.00 | 0.00 | 79 | 1015.8 |
| 20260510092003 | 52 | 182 | 0.0 | 0.0 | 0.00 | 0.00 | 0.00 | 79 | 1015.7 |
| 20260510091503 | 52 | 182 | 0.0 | 0.0 | 0.00 | 0.00 | 0.00 | 80 | 1015.7 |
| 20260510091024 | 51 | 182 | 0.0 | 0.0 | 0.00 | 0.00 | 0.00 | 80 | 1015.5 |
| 20260510090503 | 51 | 182 | 0.0 | 0.0 | 0.00 | 0.00 | 0.00 | 80 | 1015.4 |
| 20260510090003 | 51 | 182 | 0.0 | 0.0 | 0.00 | 0.00 | 0.00 | 80 | 1015.4 |
| 20260510085503 | 51 | 182 | 0.0 | 0.0 | 0.00 | 0.00 | 0.00 | 80 | 1015.4 |
| 20260510085024 | 51 | 182 | 0.0 | 0.0 | 0.00 | 0.00 | 0.00 | 80 | 1015.4 |
| 20260510084502 | 51 | 182 | 0.0 | 0.0 | 0.00 | 0.00 | 0.00 | 80 | 1015.4 |
| 20260510084003 | 51 | 182 | 0.0 | 0.0 | 0.00 | 0.00 | 0.00 | 80 | 1015.3 |
| 20260510083503 | 51 | 182 | 0.0 | 0.0 | 0.00 | 0.00 | 0.00 | 80 | 1015.3 |
| 20260510083003 | 51 | 182 | 0.0 | 0.0 | 0.00 | 0.00 | 0.00 | 80 | 1015.3 |
| 20260510082503 | 51 | 182 | 0.0 | 0.0 | 0.00 | 0.00 | 0.00 | 80 | 1015.3 |
| 20260510082003 | 51 | 182 | 0.0 | 0.0 | 0.00 | 0.00 | 0.00 | 80 | 1015.2 |
| 20260510081503 | 52 | 182 | 0.0 | 0.0 | 0.00 | 0.00 | 0.00 | 80 | 1015.2 |
| 20260510081003 | 52 | 182 | 0.0 | 0.0 | 0.00 | 0.00 | 0.00 | 80 | 1015.1 |
| 20260510080503 | 52 | 182 | 0.0 | 0.0 | 0.00 | 0.00 | 0.00 | 80 | 1015.1 |
| 20260510080003 | 52 | 182 | 0.0 | 0.0 | 0.00 | 0.00 | 0.00 | 79 | 1015.1 |
| 20260510075502 | 52 | 182 | 0.0 | 0.0 | 0.00 | 0.00 | 0.00 | 79 | 1015.1 |
| 20260510075003 | 52 | 182 | 0.0 | 0.0 | 0.00 | 0.00 | 0.00 | 79 | 1015.1 |
| 20260510074525 | 52 | 195 | 0.0 | 0.0 | 0.00 | 0.00 | 0.00 | 79 | 1015.0 |
| 20260510074002 | 52 | 192 | 0.0 | 0.0 | 0.00 | 0.00 | 0.00 | 79 | 1015.0 |
| 20260510073503 | 52 | 200 | 0.0 | 0.0 | 0.00 | 0.00 | 0.00 | 79 | 1014.9 |
| 20260510073003 | 52 | 202 | 0.0 | 0.0 | 0.00 | 0.00 | 0.00 | 79 | 1014.8 |
| 20260510072503 | 53 | 202 | 0.0 | 0.0 | 0.00 | 0.00 | 0.00 | 79 | 1014.8 |
| 20260510072003 | 53 | 202 | 0.0 | 0.0 | 0.00 | 0.00 | 0.00 | 79 | 1014.8 |
| 20260510071503 | 53 | 202 | 0.0 | 0.0 | 0.00 | 0.00 | 0.00 | 79 | 1014.8 |
| 20260510071002 | 53 | 202 | 0.0 | 0.0 | 0.00 | 0.00 | 0.00 | 78 | 1014.8 |
| 20260510070503 | 53 | 205 | 0.0 | 0.0 | 0.00 | 0.00 | 0.00 | 78 | 1014.9 |
| 20260510070004 | 53 | 202 | 0.0 | 0.0 | 0.00 | 0.00 | 0.00 | 78 | 1014.9 |
| 20260510065503 | 53 | 202 | 0.0 | 0.0 | 0.00 | 0.00 | 0.00 | 78 | 1014.8 |
| 20260510065003 | 54 | 202 | 0.0 | 0.0 | 0.00 | 0.00 | 0.00 | 77 | 1014.9 |
| 20260510064503 | 54 | 223 | 0.0 | 0.0 | 0.00 | 0.00 | 0.00 | 77 | 1014.9 |
| 20260510064003 | 54 | 209 | 0.0 | 0.0 | 0.00 | 0.00 | 0.00 | 77 | 1014.9 |
| 20260510063503 | 54 | 210 | 0.0 | 0.0 | 0.00 | 0.00 | 0.00 | 77 | 1014.9 |
| 20260510063024 | 54 | 196 | 0.0 | 0.0 | 0.00 | 0.00 | 0.00 | 77 | 1015.0 |
| 20260510062503 | 54 | 202 | 0.0 | 0.0 | 0.00 | 0.00 | 0.00 | 77 | 1015.0 |
| 20260510062024 | 54 | 194 | 0.0 | 0.0 | 0.00 | 0.00 | 0.00 | 77 | 1014.9 |
| 20260510061503 | 54 | 200 | 0.0 | 0.0 | 0.00 | 0.00 | 0.00 | 77 | 1014.9 |
| 20260510061003 | 54 | 216 | 0.0 | 0.0 | 0.00 | 0.00 | 0.00 | 77 | 1014.9 |
| 20260510060503 | 54 | 199 | 0.0 | 0.0 | 0.00 | 0.00 | 0.00 | 77 | 1015.0 |
| 20260510060003 | 54 | 199 | 0.0 | 0.0 | 0.00 | 0.00 | 0.00 | 77 | 1015.0 |
| 20260510055502 | 54 | 200 | 0.0 | 0.0 | 0.00 | 0.00 | 0.00 | 77 | 1015.1 |
| 20260510055003 | 54 | 200 | 0.0 | 0.0 | 0.00 | 0.00 | 0.00 | 76 | 1015.1 |
| 20260510054503 | 54 | 200 | 0.0 | 0.0 | 0.00 | 0.00 | 0.00 | 76 | 1015.1 |
| 20260510054003 | 54 | 199 | 0.0 | 0.0 | 0.00 | 0.00 | 0.00 | 76 | 1015.1 |
| 20260510053532 | 54 | 199 | 0.0 | 0.0 | 0.00 | 0.00 | 0.00 | 75 | 1015.1 |
| 20260510052510 | 55 | 199 | 0.0 | 0.0 | 0.00 | 0.00 | 0.00 | 75 | 1015.1 |
| 20260510052011 | 55 | 211 | 0.0 | 0.0 | 0.00 | 0.00 | 0.00 | 75 | 1015.1 |
| 20260510051507 | 55 | 197 | 0.0 | 0.9 | 0.00 | 0.00 | 0.00 | 75 | 1015.0 |
| 20260510051008 | 55 | 195 | 0.0 | 0.9 | 0.00 | 0.00 | 0.00 | 75 | 1015.0 |
| 20260510050556 | 55 | 196 | 0.0 | 0.9 | 0.00 | 0.00 | 0.00 | 75 | 1015.0 |
| 20260510050006 | 55 | 196 | 0.0 | 0.9 | 0.00 | 0.00 | 0.00 | 75 | 1015.0 |
| 20260510045504 | 55 | 201 | 0.0 | 0.0 | 0.00 | 0.00 | 0.00 | 75 | 1015.1 |
| 20260510045008 | 55 | 202 | 0.0 | 0.0 | 0.00 | 0.00 | 0.00 | 75 | 1015.1 |
| 20260510044507 | 55 | 205 | 0.0 | 0.0 | 0.00 | 0.00 | 0.00 | 75 | 1015.1 |
| 20260510043509 | 55 | 208 | 0.0 | 0.0 | 0.00 | 0.00 | 0.00 | 74 | 1015.1 |
| 20260510043014 | 56 | 194 | 0.0 | 0.0 | 0.00 | 0.00 | 0.00 | 73 | 1015.1 |
| 20260510042009 | 56 | 195 | 0.0 | 0.0 | 0.00 | 0.00 | 0.00 | 73 | 1014.9 |
| 20260510041513 | 56 | 195 | 0.0 | 0.0 | 0.00 | 0.00 | 0.00 | 73 | 1014.9 |
| 20260510040004 | 56 | 192 | 0.0 | 0.0 | 0.00 | 0.00 | 0.00 | 73 | 1015.1 |
| 20260510035524 | 56 | 192 | 0.0 | 0.0 | 0.00 | 0.00 | 0.00 | 73 | 1015.1 |
| 20260510035003 | 56 | 192 | 0.0 | 0.0 | 0.00 | 0.00 | 0.00 | 73 | 1015.0 |
| 20260510034503 | 56 | 192 | 0.0 | 0.0 | 0.00 | 0.00 | 0.00 | 73 | 1015.0 |
| 20260510034003 | 56 | 193 | 0.0 | 0.0 | 0.00 | 0.00 | 0.00 | 72 | 1015.0 |
| 20260510033504 | 56 | 192 | 0.0 | 0.0 | 0.00 | 0.00 | 0.00 | 72 | 1015.0 |
| 20260510033002 | 56 | 192 | 0.0 | 0.0 | 0.00 | 0.00 | 0.00 | 72 | 1014.9 |
| 20260510032503 | 56 | 193 | 0.0 | 0.0 | 0.00 | 0.00 | 0.00 | 72 | 1014.9 |
| 20260510032003 | 56 | 194 | 0.0 | 0.0 | 0.00 | 0.00 | 0.00 | 72 | 1014.9 |
| 20260510031502 | 56 | 194 | 0.0 | 0.0 | 0.00 | 0.00 | 0.00 | 71 | 1014.8 |
| 20260510031003 | 57 | 192 | 0.0 | 0.0 | 0.00 | 0.00 | 0.00 | 71 | 1014.8 |
| 20260510030503 | 57 | 192 | 0.0 | 0.0 | 0.00 | 0.00 | 0.00 | 71 | 1014.7 |
| 20260510030002 | 57 | 194 | 0.0 | 0.0 | 0.00 | 0.00 | 0.00 | 71 | 1014.7 |
| 20260510025503 | 57 | 183 | 0.0 | 0.0 | 0.00 | 0.00 | 0.00 | 70 | 1014.7 |
| 20260510025003 | 57 | 196 | 0.0 | 0.0 | 0.00 | 0.00 | 0.00 | 70 | 1014.6 |
| 20260510024502 | 57 | 198 | 0.0 | 0.0 | 0.00 | 0.00 | 0.00 | 70 | 1014.6 |
| 20260510024003 | 57 | 198 | 0.0 | 0.0 | 0.00 | 0.00 | 0.00 | 70 | 1014.5 |
| 20260510023503 | 57 | 198 | 0.0 | 0.0 | 0.00 | 0.00 | 0.00 | 70 | 1014.5 |
| 20260510023025 | 57 | 199 | 0.0 | 0.0 | 0.00 | 0.00 | 0.00 | 70 | 1014.5 |
| 20260510022503 | 57 | 196 | 0.0 | 0.0 | 0.00 | 0.00 | 0.00 | 70 | 1014.5 |
| 20260510022008 | 58 | 248 | 0.0 | 0.0 | 0.00 | 0.00 | 0.00 | 69 | 1014.5 |
| 20260510021503 | 58 | 248 | 0.0 | 0.0 | 0.00 | 0.00 | 0.00 | 69 | 1014.4 |
| 20260510021003 | 58 | 248 | 0.0 | 0.0 | 0.00 | 0.00 | 0.00 | 70 | 1014.3 |
| 20260510020503 | 58 | 248 | 0.0 | 0.0 | 0.00 | 0.00 | 0.00 | 70 | 1014.3 |
| 20260510020003 | 58 | 248 | 0.0 | 0.0 | 0.00 | 0.00 | 0.00 | 69 | 1014.2 |
| 20260510015503 | 58 | 248 | 0.0 | 0.0 | 0.00 | 0.00 | 0.00 | 69 | 1014.2 |
| 20260510015003 | 58 | 248 | 0.0 | 0.0 | 0.00 | 0.00 | 0.00 | 69 | 1014.1 |
| 20260510014503 | 58 | 248 | 0.0 | 0.0 | 0.00 | 0.00 | 0.00 | 69 | 1014.0 |
| 20260510014003 | 58 | 252 | 0.0 | 0.0 | 0.00 | 0.00 | 0.00 | 68 | 1013.9 |
| 20260510013505 | 58 | 261 | 0.0 | 0.0 | 0.00 | 0.00 | 0.00 | 68 | 1013.8 |
| 20260510013003 | 59 | 261 | 0.0 | 0.0 | 0.00 | 0.00 | 0.00 | 67 | 1013.7 |
| 20260510012524 | 59 | 262 | 0.0 | 0.0 | 0.00 | 0.00 | 0.00 | 67 | 1013.6 |
| 20260510012003 | 59 | 262 | 0.0 | 0.0 | 0.00 | 0.00 | 0.00 | 66 | 1013.5 |
| 20260510011502 | 59 | 262 | 0.0 | 0.0 | 0.00 | 0.00 | 0.00 | 66 | 1013.4 |
| 20260510011003 | 59 | 262 | 0.0 | 0.0 | 0.00 | 0.00 | 0.00 | 64 | 1013.3 |
| 20260510010525 | 59 | 262 | 0.0 | 0.0 | 0.00 | 0.00 | 0.00 | 62 | 1013.1 |
| 20260510010004 | 59 | 262 | 0.0 | 0.0 | 0.00 | 0.00 | 0.00 | 63 | 1013.1 |
| 20260510005503 | 59 | 262 | 0.0 | 0.0 | 0.00 | 0.00 | 0.00 | 65 | 1013.1 |
| 20260510005003 | 59 | 262 | 0.0 | 0.0 | 0.00 | 0.00 | 0.00 | 64 | 1013.0 |
| 20260510004503 | 60 | 262 | 0.0 | 0.0 | 0.00 | 0.00 | 0.00 | 65 | 1012.9 |
| 20260510004024 | 60 | 262 | 0.0 | 0.0 | 0.00 | 0.00 | 0.00 | 65 | 1012.8 |
| 20260510003545 | 60 | 262 | 0.0 | 0.0 | 0.00 | 0.00 | 0.00 | 66 | 1012.8 |
| 20260510003004 | 60 | 262 | 0.0 | 0.0 | 0.00 | 0.00 | 0.00 | 65 | 1012.8 |
| 20260510002503 | 60 | 262 | 0.0 | 0.0 | 0.00 | 0.00 | 0.00 | 66 | 1012.7 |
| 20260510002003 | 61 | 262 | 0.0 | 0.0 | 0.00 | 0.00 | 0.00 | 65 | 1012.8 |
| 20260510001503 | 62 | 262 | 0.0 | 0.0 | 0.00 | 0.00 | 0.00 | 64 | 1012.8 |
| 20260510001003 | 62 | 262 | 0.0 | 0.0 | 0.00 | 0.00 | 0.00 | 64 | 1012.8 |
| 20260510000524 | 62 | 262 | 0.0 | 0.0 | 0.00 | 0.00 | 0.00 | 63 | 1012.7 |
| 20260510000004 | 62 | 262 | 0.0 | 0.0 | 0.00 | 0.00 | 0.00 | 62 | 1012.7 |
| 20260509235525 | 63 | 262 | 0.0 | 0.0 | 0.00 | 0.00 | 0.00 | 62 | 1012.6 |
| 20260509235003 | 63 | 262 | 0.0 | 0.0 | 0.00 | 0.00 | 0.00 | 63 | 1012.5 |
| 20260509234503 | 63 | 262 | 0.0 | 0.0 | 0.00 | 0.00 | 0.00 | 62 | 1012.5 |
| 20260509234002 | 63 | 262 | 0.0 | 0.0 | 0.00 | 0.00 | 0.00 | 62 | 1012.5 |
| 20260509233503 | 63 | 262 | 0.0 | 0.0 | 0.00 | 0.00 | 0.00 | 61 | 1012.4 |
| 20260509233046 | 63 | 261 | 0.0 | 0.0 | 0.00 | 0.00 | 0.00 | 62 | 1012.4 |
| 20260509232504 | 63 | 245 | 0.0 | 0.0 | 0.00 | 0.00 | 0.00 | 62 | 1012.2 |
| 20260509232005 | 64 | 315 | 0.0 | 0.0 | 0.00 | 0.00 | 0.00 | 63 | 1012.1 |
| 20260509231503 | 64 | 315 | 0.0 | 0.0 | 0.00 | 0.00 | 0.00 | 61 | 1012.2 |
| 20260509231003 | 64 | 315 | 0.0 | 0.0 | 0.00 | 0.00 | 0.00 | 61 | 1012.2 |
| 20260509230503 | 64 | 312 | 0.0 | 0.0 | 0.00 | 0.00 | 0.00 | 60 | 1012.1 |
| 20260509230024 | 64 | 34 | 0.0 | 0.0 | 0.00 | 0.00 | 0.00 | 59 | 1012.0 |
| 20260509225503 | 64 | 32 | 0.0 | 0.0 | 0.00 | 0.00 | 0.00 | 59 | 1012.0 |
| 20260509225005 | 65 | 34 | 0.0 | 0.0 | 0.00 | 0.00 | 0.00 | 60 | 1011.9 |
| 20260509224503 | 65 | 31 | 0.0 | 0.0 | 0.00 | 0.00 | 0.00 | 61 | 1011.9 |
| 20260509224003 | 65 | 29 | 0.0 | 0.0 | 0.00 | 0.00 | 0.00 | 59 | 1011.9 |
| 20260509223504 | 65 | 52 | 0.0 | 0.0 | 0.00 | 0.00 | 0.00 | 58 | 1011.9 |
| 20260509223003 | 65 | 49 | 0.0 | 0.0 | 0.00 | 0.00 | 0.00 | 57 | 1012.0 |
| 20260509222503 | 65 | 43 | 0.0 | 0.0 | 0.00 | 0.00 | 0.00 | 57 | 1012.1 |
| 20260509222003 | 66 | 276 | 0.0 | 0.0 | 0.00 | 0.00 | 0.00 | 57 | 1012.2 |
| 20260509221503 | 66 | 26 | 0.0 | 0.0 | 0.00 | 0.00 | 0.00 | 55 | 1012.3 |
| 20260509221024 | 66 | 26 | 0.0 | 0.0 | 0.00 | 0.00 | 0.00 | 55 | 1012.2 |
| 20260509220503 | 66 | 305 | 0.0 | 0.0 | 0.00 | 0.00 | 0.00 | 55 | 1012.1 |
| 20260509220003 | 66 | 46 | 0.0 | 0.0 | 0.00 | 0.00 | 0.00 | 55 | 1012.1 |
| 20260509215503 | 67 | 34 | 0.0 | 0.0 | 0.00 | 0.00 | 0.00 | 55 | 1012.0 |
| 20260509215002 | 67 | 350 | 0.0 | 0.0 | 0.00 | 0.00 | 0.00 | 55 | 1012.0 |
| 20260509214524 | 67 | 346 | 0.0 | 0.9 | 0.00 | 0.00 | 0.00 | 53 | 1012.0 |
| 20260509214003 | 67 | 335 | 0.0 | 0.9 | 0.00 | 0.00 | 0.00 | 53 | 1011.9 |
| 20260509213503 | 67 | 208 | 0.0 | 0.0 | 0.00 | 0.00 | 0.00 | 53 | 1011.9 |
| 20260509213045 | 67 | 64 | 0.0 | 1.7 | 0.00 | 0.00 | 0.00 | 52 | 1011.8 |
| 20260509212503 | 68 | 34 | 0.0 | 1.7 | 0.00 | 0.00 | 0.00 | 51 | 1011.8 |
| 20260509212003 | 68 | 95 | 0.0 | 0.9 | 0.00 | 0.00 | 0.00 | 52 | 1011.8 |
| 20260509211503 | 68 | 221 | 0.0 | 0.9 | 0.00 | 0.00 | 0.00 | 50 | 1011.6 |
| 20260509211003 | 68 | 24 | 0.0 | 0.0 | 0.00 | 0.00 | 0.00 | 51 | 1011.5 |
| 20260509210503 | 68 | 178 | 0.0 | 0.0 | 0.00 | 0.00 | 0.00 | 53 | 1011.5 |
| 20260509210003 | 68 | 30 | 0.0 | 2.6 | 0.00 | 0.00 | 0.00 | 52 | 1011.5 |
| 20260509205503 | 68 | 6 | 0.0 | 2.6 | 0.00 | 0.00 | 0.00 | 51 | 1011.5 |
| 20260509205003 | 68 | 53 | 0.0 | 1.7 | 0.00 | 0.00 | 0.00 | 49 | 1011.5 |
| 20260509204502 | 68 | 24 | 0.0 | 1.7 | 0.00 | 0.00 | 0.00 | 49 | 1011.6 |
| 20260509204003 | 69 | 12 | 0.0 | 4.3 | 0.00 | 0.00 | 0.00 | 50 | 1011.5 |
| 20260509203503 | 69 | 32 | 0.9 | 4.3 | 0.00 | 0.00 | 0.00 | 50 | 1011.5 |
| 20260509203003 | 69 | 83 | 0.0 | 4.3 | 0.00 | 0.00 | 0.00 | 49 | 1011.4 |
| 20260509202502 | 69 | 32 | 0.0 | 4.3 | 0.00 | 0.00 | 0.00 | 50 | 1011.5 |
| 20260509202003 | 69 | 355 | 0.0 | 1.7 | 0.00 | 0.00 | 0.00 | 48 | 1011.5 |
| 20260509201503 | 69 | 18 | 0.0 | 2.6 | 0.00 | 0.00 | 0.00 | 48 | 1011.5 |
| 20260509201003 | 70 | 5 | 0.0 | 2.6 | 0.00 | 0.00 | 0.00 | 47 | 1011.5 |
| 20260509200503 | 70 | 360 | 0.0 | 5.2 | 0.00 | 0.00 | 0.00 | 50 | 1011.4 |
| 20260509200003 | 69 | 59 | 0.9 | 5.2 | 0.00 | 0.00 | 0.00 | 49 | 1011.4 |
| 20260509195503 | 69 | 32 | 0.0 | 3.5 | 0.00 | 0.00 | 0.00 | 51 | 1011.4 |
| 20260509195003 | 70 | 86 | 0.0 | 1.7 | 0.00 | 0.00 | 0.00 | 50 | 1011.4 |
| 20260509194503 | 70 | 23 | 0.0 | 1.7 | 0.00 | 0.00 | 0.00 | 51 | 1011.4 |
| 20260509194002 | 69 | 8 | 0.0 | 1.7 | 0.00 | 0.00 | 0.00 | 54 | 1011.4 |
| 20260509193503 | 69 | 49 | 0.0 | 1.7 | 0.00 | 0.00 | 0.00 | 51 | 1011.4 |
| 20260509193002 | 70 | 129 | 0.0 | 1.7 | 0.00 | 0.00 | 0.00 | 52 | 1011.4 |
| 20260509192503 | 69 | 355 | 0.0 | 0.0 | 0.00 | 0.00 | 0.00 | 53 | 1011.5 |
| 20260509192003 | 69 | 203 | 0.0 | 0.9 | 0.00 | 0.00 | 0.00 | 54 | 1011.4 |
| 20260509191503 | 68 | 20 | 0.0 | 0.9 | 0.00 | 0.00 | 0.00 | 53 | 1011.4 |
| 20260509191003 | 68 | 214 | 0.0 | 0.9 | 0.00 | 0.00 | 0.00 | 54 | 1011.4 |